TimeEST,TemperatureF,Dew PointF,Humidity,Sea Level PressureIn,VisibilityMPH,Wind Direction,Wind SpeedMPH,Gust SpeedMPH,PrecipitationIn,Events,Conditions,WindDirDegrees,DateUTC
12:53 AM,30.0,24.1,79,30.35,10.0,WSW,3.5,-,N/A,,Clear,250,2012-12-31 05:53:00
1:53 AM,30.0,23.0,75,30.36,10.0,Calm,Calm,-,N/A,,Clear,0,2012-12-31 06:53:00
2:53 AM,27.0,23.0,85,30.35,10.0,SSW,3.5,-,N/A,,Clear,200,2012-12-31 07:53:00
3:53 AM,28.0,24.1,85,30.36,10.0,Calm,Calm,-,N/A,,Clear,0,2012-12-31 08:53:00
4:53 AM,27.0,23.0,85,30.37,10.0,Calm,Calm,-,N/A,,Clear,0,2012-12-31 09:53:00
5:53 AM,25.0,21.0,85,30.37,10.0,Calm,Calm,-,N/A,,Clear,0,2012-12-31 10:53:00
7:53 AM,28.0,24.1,85,30.37,10.0,Calm,Calm,-,N/A,,Clear,0,2012-12-31 12:53:00
8:53 AM,30.9,26.1,82,30.38,10.0,SSW,4.6,-,N/A,,Clear,210,2012-12-31 13:53:00
9:53 AM,37.9,28.9,70,30.38,10.0,SW,5.8,-,N/A,,Clear,220,2012-12-31 14:53:00
10:53 AM,44.1,27.0,51,30.36,10.0,SSW,8.1,-,N/A,,Clear,210,2012-12-31 15:53:00
11:53 AM,50.0,25.0,38,30.32,10.0,SW,11.5,-,N/A,,Clear,220,2012-12-31 16:53:00
12:53 PM,53.1,21.9,30,30.26,10.0,SSW,12.7,-,N/A,,Clear,200,2012-12-31 17:53:00
1:53 PM,53.1,21.9,30,30.26,10.0,WSW,13.8,-,N/A,,Clear,240,2012-12-31 18:53:00
2:53 PM,55.0,21.0,27,30.22,10.0,SSW,13.8,-,N/A,,Clear,210,2012-12-31 19:53:00
3:53 PM,55.0,23.0,29,30.21,10.0,SSW,8.1,-,N/A,,Clear,210,2012-12-31 20:53:00
4:53 PM,52.0,26.1,37,30.21,10.0,SW,5.8,-,N/A,,Clear,230,2012-12-31 21:53:00
5:53 PM,48.0,28.9,48,30.19,10.0,South,4.6,-,N/A,,Clear,190,2012-12-31 22:53:00
6:53 PM,48.0,33.1,56,30.20,10.0,SSW,5.8,-,N/A,,Overcast,210,2012-12-31 23:53:00
7:53 PM,50.0,39.0,66,30.19,10.0,SW,6.9,-,N/A,,Overcast,230,2013-01-01 00:53:00
8:53 PM,51.1,39.0,63,30.17,10.0,SSW,9.2,-,N/A,,Overcast,200,2013-01-01 01:53:00
9:53 PM,48.9,37.9,66,30.15,10.0,SW,5.8,-,N/A,,Scattered Clouds,220,2013-01-01 02:53:00
10:53 PM,48.0,37.9,68,30.15,10.0,SW,5.8,-,N/A,,Clear,220,2013-01-01 03:53:00
11:53 PM,46.9,39.0,74,30.13,8.0,SW,3.5,-,N/A,,Clear,220,2013-01-01 04:53:00